Weather History for KCTB - April, 2014

Change the Weather History Date:

Tuesday, April 8, 2014

  Actual Average Record
Temperature  
Mean Temperature 58 °F 39 °F  
Max Temperature 68 °F 51 °F 79 °F (1977)
Min Temperature 48 °F 27 °F 5 °F (1982)
Degree Days  
Heating Degree Days 7 26  
Month to date heating degree days 188 217  
Since 1 July heating degree days 7616 7315  
Cooling Degree Days 0 0  
Month to date cooling degree days 0 0  
Year to date cooling degree days 0 0  
Growing Degree Days 7 (Base 50)    
Moisture  
Dew Point 28 °F    
Average Humidity 37    
Maximum Humidity 54    
Minimum Humidity 19    
Precipitation  
Precipitation 0.00 in 0.02 in 0.27 in (1922)
Month to date precipitation 0.02 0.15  
Year to date precipitation 1.70 1.06  
Snow  
Snow 0.00 in - - ()
Snow Depth 0.00 in    
Sea Level Pressure  
Sea Level Pressure 29.87 in    
Wind  
Wind Speed 22 mph (WSW)    
Max Wind Speed 35 mph    
Max Gust Speed 41 mph    
Visibility 10 miles    
Events      
T = Trace of Precipitation, MM = Missing Value Source: NWS Daily Summary

Daily Weather History Graph

Daily Weather History Graph

Search for Another Location

Airport or City:

Trip Planner

Search our weather history database for the weather conditions in past years. The results will help you decide how hot, cold, wet, or windy it might be!

Date:

Astronomy

Apr. 08, 2014 Rise Set
Actual Time 6:52 AM MDT 8:10 PM MDT
Civil Twilight 6:20 AM MDT 8:43 PM MDT
Nautical Twilight 5:41 AM MDT 9:22 PM MDT
Astronomical Twilight 4:59 AM MDT 10:04 PM MDT
Moon 1:40 PM MDT (4/8) 3:36 AM MDT (4/8)
Length of Visible Light 14h 22m
Length of Day
13h 17m
Waxing Gibbous, 63% of the Moon is Illuminated
Apr 8
Waxing Gibbous
Apr 15
Full
Apr 22
Last Quarter
Apr 29
New
May 6
First Quarter

Hourly Weather History & Observations

Time (MDT) Temp. Dew Point Humidity Pressure Visibility Wind Dir Wind Speed Gust Speed Precip Events Conditions
12:56 AM 50.0 °F 30.9 °F 48% 29.99 in 10.0 mi WSW 23.0 mph 31.1 mph N/A   Clear
1:56 AM 48.9 °F 30.9 °F 50% 29.99 in 10.0 mi WSW 26.5 mph 33.4 mph N/A   Clear
2:56 AM 48.0 °F 30.9 °F 52% 29.98 in 10.0 mi WSW 21.9 mph - N/A   Clear
3:56 AM 48.9 °F 32.0 °F 52% 29.98 in 10.0 mi West 13.8 mph - N/A   Clear
4:56 AM 48.9 °F 32.0 °F 52% 29.95 in 10.0 mi West 27.6 mph 36.8 mph N/A   Clear
5:56 AM 48.9 °F 30.9 °F 50% 29.95 in 10.0 mi SW 21.9 mph - N/A   Clear
6:56 AM 48.9 °F 32.0 °F 52% 29.94 in 10.0 mi West 28.8 mph 35.7 mph N/A   Clear
7:56 AM 48.9 °F 30.9 °F 50% 29.96 in 10.0 mi WSW 18.4 mph - N/A   Clear
8:56 AM 51.1 °F 30.9 °F 46% 29.96 in 10.0 mi WSW 17.3 mph - N/A   Clear
9:56 AM 54.0 °F 30.9 °F 41% 29.94 in 10.0 mi WSW 24.2 mph 32.2 mph N/A   Clear
10:56 AM 57.9 °F 30.9 °F 36% 29.94 in 10.0 mi WSW 20.7 mph 25.3 mph N/A   Clear
1:56 PM 66.0 °F 23.0 °F 20% 29.86 in 10.0 mi West 27.6 mph 35.7 mph N/A   Clear
2:56 PM 66.9 °F 23.0 °F 19% 29.84 in 10.0 mi West 24.2 mph 31.1 mph N/A   Clear
3:56 PM 66.9 °F 27.0 °F 22% 29.81 in 10.0 mi SW 20.7 mph 32.2 mph N/A   Clear
4:56 PM 64.0 °F 25.0 °F 23% 29.79 in 10.0 mi West 23.0 mph 39.1 mph N/A   Clear
5:56 PM 66.9 °F 24.1 °F 20% 29.78 in 10.0 mi WSW 23.0 mph 34.5 mph N/A   Clear
6:56 PM 63.0 °F 23.0 °F 22% 29.79 in 10.0 mi WSW 16.1 mph 27.6 mph N/A   Clear
7:56 PM 59.0 °F 23.0 °F 25% 29.79 in 10.0 mi SW 8.1 mph - N/A   Clear
8:56 PM 55.9 °F 26.1 °F 32% 29.77 in 10.0 mi WSW 18.4 mph - N/A   Clear
9:56 PM 57.9 °F 26.1 °F 30% 29.75 in 10.0 mi WSW 21.9 mph 33.4 mph N/A   Clear
10:56 PM 57.0 °F 24.1 °F 28% 29.71 in 10.0 mi WSW 24.2 mph 27.6 mph N/A   Clear
11:56 PM 55.9 °F 23.0 °F 28% 29.68 in 10.0 mi WSW 18.4 mph 27.6 mph N/A   Clear